Location: ???? ??????
(44.6125°N, 135.4531°E)
Time: 08:36:59
(UTC+00:00)

Daily predictions for brighter satellites

Satellite Brightness Start Highest point End
(mag) Time Altitude Azimuth Time Altitude Azimuth Time Altitude Azimuth
USA 238 DEB 4.4 18:38:43 45° ENE 18:38:43 45° ENE 18:43:18 10° NE
USA 238 4.4 18:38:48 45° ENE 18:38:48 45° ENE 18:43:26 10° NE
Cosmos 1697 Rocket 4.1 19:05:40 23° SSE 19:08:17 34° ESE 19:13:19 10° NE
Cosmos 2297 Rocket 2.5 19:10:55 62° E 19:10:55 62° E 19:16:09 10° SE
Cosmos 2344 4.0 19:09:34 36° NNW 19:13:41 80° NE 19:24:45 10° SE
Cosmos 1733 Rocket 4.3 19:24:04 35° SE 19:25:02 40° E 19:29:07 10° NNE
USA 215 3.8 19:24:11 10° E 19:30:31 52° NNE 19:33:23 32° NNW
USA 59 Rocket 1.5 19:35:06 27° E 19:35:06 27° E 19:36:58 10° ENE
Cosmos 2263 Rocket 3.8 19:38:34 10° N 19:43:40 32° NE 19:48:42 10° ESE
SL-4 R/B 3.4 19:46:23 28° NNE 19:46:23 28° NNE 19:49:04 10° ENE
BREEZE-M R/B 4.4 19:53:46 20° NE 19:53:46 20° NE 19:54:40 10° ENE
SL-08 R/B 4.5 19:46:11 10° S 19:52:35 89° E 19:59:05 10° N
Cosmos 2292 Rocket 4.1 19:47:56 10° N 19:52:42 78° E 19:58:47 10° S
Cosmos 2360 4.4 19:53:19 50° NW 19:53:19 50° NW 19:58:46 10° NNE
SL-24 R/B 4.4 19:50:30 10° NNE 19:55:24 86° WNW 20:00:59 10° SSW
Cosmos 1727 Rocket 3.9 19:50:17 10° NNW 19:56:20 57° W 20:02:22 10° S
PAYLOAD A 4.1 19:51:48 10° N 19:56:55 56° WNW 19:57:00 56° WNW
Cosmos 2242 Rocket 3.4 19:56:42 30° N 19:58:50 85° W 20:03:16 10° S
Exosat Rocket 4.0 19:54:51 10° NNW 20:00:43 63° ENE 20:05:39 10° SE
Cosmos 1656 4.4 20:01:38 34° NW 20:01:38 34° NW 20:06:07 10° N
Cosmos 1934 Rocket 3.9 20:00:50 10° S 20:06:56 87° E 20:13:09 10° N
Cosmos 2227 Rocket 2.3 20:03:54 10° NNW 20:09:31 79° ENE 20:15:11 10° SSE
Cosmos 1674 Rocket 3.8 20:10:03 10° N 20:14:29 69° E 20:18:52 10° SSE
Cosmos 2084 3.2 20:18:12 53° W 20:18:49 62° SW 20:22:48 10° SSE
BREEZE-M DEB (TANK) 3.6 20:18:46 30° W 20:21:49 76° NNW 20:27:19 10° ENE
Cosmos 1605 Rocket 4.4 20:15:41 10° S 20:22:00 68° E 20:28:20 10° NNE
NOAA 12 4.0 20:17:41 10° NNE 20:22:59 82° WNW 20:28:15 10° SSW
CZ-2C R/B 3.8 20:19:25 10° N 20:21:29 20° NNW 20:21:29 20° NNW
Meteor 1-11 4.2 20:18:38 10° NNW 20:24:29 74° W 20:30:18 10° S
USA 238 DEB 4.4 20:26:09 26° WNW 20:28:12 32° NNW 20:34:15 10° NNE
USA 238 4.4 20:26:15 27° WNW 20:28:19 32° NW 20:34:23 10° NNE
IRS-1D 3.4 20:27:08 10° N 20:32:22 74° WNW 20:37:27 10° SSW
FengYun 1-2 T 4.5 20:27:28 10° N 20:32:37 43° WNW 20:37:45 10° SW
SKYMED 2 3.6 20:30:00 10° S 20:34:13 52° W 20:38:29 10° NNW
H-2A R/B 3.8 20:30:52 10° N 20:34:24 36° WNW 20:34:43 35° W
Aureole 3 4.3 20:29:27 10° NNW 20:34:46 41° W 20:39:12 10° SSW
COSMO-SKYMED 1 2.3 20:32:49 10° SSE 20:36:56 84° WSW 20:41:04 10° NNW
NOSS 2-1 (D) 3.0 20:38:00 33° WSW 20:39:12 51° NW 20:42:14 10° NNE
Cosmos 1980 Rocket 2.2 20:34:15 10° SSW 20:39:50 83° ESE 20:45:27 10° NNE
NOSS 2-1 (C) 3.0 20:41:41 26° WSW 20:43:22 52° NW 20:46:26 10° NNE
CZ-4 R/B 3.8 20:40:06 10° N 20:45:03 69° WNW 20:49:59 10° SSW
Cosmos 1503 Rocket 4.0 20:40:36 10° SSW 20:45:45 87° ESE 20:51:00 10° NNE
NOSS 2-1 (E) 3.0 20:45:19 18° SW 20:47:55 56° NW 20:51:03 10° NNE
ISS -0.4 20:48:15 10° SE 20:49:03 11° SE 20:49:49 10° ESE
Cosmos 1697 Rocket 3.2 20:47:28 13° WSW 20:52:08 39° NW 20:57:26 10° NNE
COSMOS 2455 2.8 20:46:16 10° SW 20:52:15 68° NW 20:58:18 10° NNE
Cosmos 1570 Rocket 4.5 20:48:31 10° NW 20:53:17 37° WSW 20:58:00 10° SSW
Cosmos 2297 Rocket 3.4 20:52:47 19° W 20:54:01 20° W 20:58:00 10° SW
Cosmos 1782 Rocket 4.3 20:51:55 10° S 20:56:13 57° E 21:00:33 10° NNE
Cosmos 1908 Rocket 3.4 20:52:45 10° SSW 20:57:03 70° W 21:01:26 10° N
Cosmos 2221 Rocket 3.6 20:53:01 10° NNW 20:57:32 69° W 21:02:01 10° S
Cosmos 1869 4.2 20:55:27 10° SSE 20:58:51 45° E 21:02:16 10° NNE
Cosmos 1733 Rocket 4.3 21:01:06 16° W 21:02:51 19° WNW 21:06:02 10° NNW
NOSS 3-1 (C) 2.8 21:00:13 10° SW 21:04:48 81° NW 21:10:19 10° NE
Cosmos 2219 3.3 20:59:19 10° NNW 21:05:04 81° ENE 21:10:45 10° SSE
Cosmos 1812 1.5 21:04:21 10° S 21:06:47 83° E 21:09:13 10° N
NOSS 3-1 (A) 4.2 21:05:16 10° S 21:09:32 42° ESE 21:14:32 10° NE
Helios 1A Rocket 2.3 21:07:37 10° SSE 21:10:53 89° SW 21:14:11 10° NNW
SMAP 3.8 21:06:27 10° NNE 21:11:04 59° ESE 21:15:39 10° S
Cosmos 1777 Rocket 4.3 21:08:30 10° SW 21:13:27 45° WNW 21:18:26 10° N
USA 215 3.4 21:07:00 10° SE 21:13:28 59° SW 21:19:58 10° NW
ARIANE 5 R/B 4.1 21:12:49 10° NNE 21:17:29 39° E 21:22:06 10° SSE
Cosmos 783 Rocket 4.5 21:13:00 10° NNW 21:18:10 66° WSW 21:23:16 10° S
GP-B 3.1 21:17:22 10° N 21:21:40 58° W 21:25:57 10° SSW
USA 59 Rocket 0.9 21:20:45 11° W 21:22:43 17° NW 21:24:50 10° N
SL-4 R/B 1.7 21:20:00 10° WNW 21:23:35 88° SSW 21:27:23 10° ESE
CBERS-1 4.0 21:21:22 10° NNE 21:26:30 81° WNW 21:31:35 10° SSW
Cosmos 2263 Rocket 2.6 21:22:22 10° NW 21:27:41 43° WSW 21:32:57 10° S
Thor Agena Rocket 4.2 21:23:21 10° NNE 21:28:35 65° ESE 21:33:48 10° S
Cosmos 1400 Rocket 2.9 21:28:24 10° SSW 21:32:02 45° WNW 21:35:43 10° N
Cosmos 2369 3.7 21:27:43 10° SSW 21:33:23 70° WNW 21:39:03 10° NNE
MOS 1 Rocket 3.1 21:30:10 10° N 21:34:28 73° WNW 21:38:53 10° SSW
Cosmos 1025 Rocket 4.3 21:31:47 10° NW 21:35:02 21° W 21:38:16 10° SW
Cosmos 2173 Rocket 4.2 21:28:56 10° S 21:35:17 85° E 21:41:42 10° N
Cosmos 2082 3.7 21:30:33 10° NNW 21:36:15 72° WSW 21:41:53 10° SSE
